Theta_e
312 313 309 309 309 308 309 309 310 311 310 309 309 309 309 309 307 306 306 307 304 303 302 304 305 307 307 307 308 309 310 312 313 314 316 317 318 318 319 319 319 320 322 321
312 310 309 309 310 308 310 311 310 311 310 309 309 309 309 308 307 306 306 306 303 301 301 303 303 305 306 306 306 307 308 310 312 314 315 316 316 316 317 316 317 318 318 317
312 309 308 309 310 308 309 309 307 308 308 309 309 311 311 309 307 304 303 303 302 300 299 301 301 301 304 306 306 306 307 307 309 312 312 315 316 315 315 315 314 315 315 316
311 309 309 310 310 307 309 308 308 309 308 310 310 309 313 309 307 304 303 301 302 300 298 299 299 297 301 304 304 305 306 306 307 307 309 309 310 310 309 309 311 312 312 314
311 309 309 311 308 307 308 308 307 310 310 310 311 310 312 310 309 307 304 302 302 299 297 297 297 296 295 297 303 304 304 306 306 306 307 307 306 305 306 306 307 308 309 310
310 307 308 307 307 307 307 308 311 310 311 314 311 310 311 311 310 309 306 303 300 298 296 296 295 295 294 294 296 298 296 301 304 305 305 306 306 306 306 306 306 306 306 307
315 310 307 306 308 308 309 309 317 316 317 316 310 309 308 309 308 306 306 302 300 298 296 295 295 295 294 294 294 294 295 294 294 296 299 295 295 297 299 301 304 305 304 305
315 316 309 307 307 307 308 308 311 314 314 312 310 310 312 307 304 303 305 304 300 298 296 295 295 295 295 294 293 293 293 292 292 292 292 292 292 292 292 291 292 292 294 296
311 315 306 306 306 306 309 310 307 308 310 311 310 312 307 305 303 302 302 302 300 298 297 295 295 295 295 294 293 292 292 292 292 291 292 292 291 291 291 290 290 290 290 290
310 310 309 306 305 306 306 306 308 309 314 314 313 313 312 309 307 304 302 301 300 299 297 296 294 293 293 293 292 292 291 291 290 290 291 291 291 290 290 289 289 289 289 288
308 310 311 309 308 310 307 308 306 307 309 312 312 311 310 310 310 308 305 305 303 301 299 297 295 292 292 292 292 291 290 289 290 289 290 290 290 289 288 288 288 288 288 288
306 311 312 314 305 304 305 307 306 309 312 309 309 311 309 307 309 309 308 308 306 304 301 298 295 292 291 290 290 290 290 289 288 289 288 288 288 288 288 287 287 287 287 287
310 312 313 315 307 304 305 307 305 306 307 307 309 310 308 307 307 308 307 307 306 305 302 298 294 292 291 289 288 288 288 289 291 289 287 289 292 293 290 288 287 287 286 286
308 312 314 316 315 313 312 312 311 312 311 309 309 309 309 309 308 305 305 305 305 304 301 298 294 292 290 288 287 287 286 287 291 290 291 290 287 287 288 287 286 286 286 285
308 311 312 313 312 311 310 310 311 311 311 312 312 311 311 309 304 305 305 303 302 302 300 297 294 292 290 288 286 285 285 291 287 285 285 286 285 286 285 285 285 285 284 284
306 310 308 308 310 311 311 310 311 311 310 310 310 310 308 306 306 304 303 300 298 299 299 297 294 292 290 288 286 285 290 288 287 286 284 286 286 284 284 284 284 285 284 284
304 305 309 314 311 310 312 311 310 310 309 309 309 308 306 303 301 302 300 296 295 296 297 296 293 291 289 287 285 287 284 284 286 286 287 285 284 283 283 283 283 283 283 283
306 305 308 311 310 314 311 308 308 308 307 307 306 304 302 303 306 302 296 294 293 293 294 294 292 290 288 287 287 286 286 286 286 285 285 284 283 282 282 282 282 282 282 282
309 307 309 312 312 312 311 307 307 307 306 304 306 306 306 304 301 299 295 293 291 292 291 290 289 288 288 287 287 285 284 285 284 284 284 283 282 282 281 281 281 281 281 281
302 306 309 312 313 314 308 303 303 303 306 304 303 302 299 298 302 298 293 291 290 290 290 288 287 286 286 285 284 284 284 284 283 283 282 281 281 281 280 280 280 280 279 279
305 306 308 309 311 310 303 302 302 308 307 300 298 297 297 297 297 293 290 287 286 285 284 284 284 284 284 284 284 284 283 282 283 281 280 280 280 280 279 279 279 279 279 278
307 308 307 308 311 312 302 304 308 300 298 297 296 295 294 293 292 290 287 286 285 284 283 283 283 283 283 283 283 283 282 282 280 280 279 279 279 278 278 278 278 277 277 277
311 309 312 310 311 305 304 303 297 297 295 293 291 291 291 291 289 287 285 284 283 283 283 283 283 282 282 283 283 281 280 279 279 279 278 278 278 277 277 277 277 277 276 276
309 309 309 307 307 301 297 295 294 293 291 289 288 288 288 289 287 285 284 283 283 282 282 282 282 282 281 281 279 278 278 278 278 278 277 277 277 277 277 276 276 276 275 276
310 307 307 307 307 296 293 292 291 290 288 286 285 286 286 285 285 284 283 282 282 282 281 281 281 280 279 278 278 277 277 277 277 277 276 276 276 276 276 276 275 275 275 275
306 307 306 308 293 294 291 290 287 286 285 284 284 282 284 284 283 282 282 281 281 281 281 280 278 278 278 277 277 276 276 277 276 276 276 276 276 276 276 276 276 276 275 275
Wind_Speed
4 5 6 7 6 6 6 8 9 6 5 2 7 9 9 16 13 10 7 4 1 4 7 10 12 15 19 19 26 28 23 18 11 2 2 5 7 7 7 9 12 14 15 17
0 5 4 5 5 6 9 8 7 3 3 8 7 14 11 16 12 11 11 7 5 3 4 7 8 10 17 19 20 27 26 22 15 5 0 4 5 9 9 14 16 16 21 20
4 3 4 5 6 8 8 6 7 7 12 9 6 2 3 6 10 6 5 8 6 5 2 2 4 7 10 15 18 21 26 26 22 10 4 3 7 10 11 11 14 13 15 18
3 3 4 7 3 6 4 5 7 8 7 4 5 4 3 5 6 9 12 12 10 7 4 1 2 5 6 8 13 15 18 22 21 20 15 15 9 9 11 9 5 4 4 10
1 3 4 6 3 4 7 9 9 3 4 6 1 1 3 6 7 9 16 17 12 9 6 3 2 4 6 8 9 12 13 15 19 19 16 16 19 22 20 17 15 15 12 8
1 2 1 4 7 6 10 10 9 5 1 1 3 3 5 4 2 3 13 17 13 9 7 5 3 2 4 6 8 9 12 12 13 14 17 17 17 16 9 14 16 16 17 16
5 4 4 2 6 2 8 7 4 4 2 4 4 1 9 5 3 3 2 15 12 11 10 9 6 4 2 2 4 6 8 10 12 12 13 14 14 14 13 12 10 13 17 18
4 4 3 3 3 3 5 3 2 4 3 6 5 5 5 5 3 0 2 11 13 14 13 14 11 8 5 3 2 3 5 8 9 11 13 14 13 14 14 14 15 15 13 12
6 3 3 3 1 2 3 2 1 4 6 2 5 6 2 3 3 3 5 9 14 16 16 15 14 11 9 6 4 1 2 4 6 8 9 10 12 12 14 15 14 15 15 15
2 6 2 3 2 2 2 2 1 2 4 5 5 6 4 4 5 6 8 14 17 17 17 17 16 13 10 9 7 5 2 1 3 5 6 8 9 11 12 12 13 14 15 15
1 2 5 1 5 2 2 2 3 1 2 3 5 5 3 4 3 6 15 17 18 18 20 19 16 15 13 12 9 7 5 2 1 2 4 6 8 9 11 11 12 13 13 13
2 3 4 7 5 5 3 3 3 1 3 3 4 7 8 7 2 3 7 7 15 17 20 20 17 18 15 12 10 9 7 3 1 3 4 5 8 9 11 12 11 11 12 14
3 2 4 1 1 3 2 4 5 6 3 5 3 6 2 6 3 7 12 15 11 13 19 18 19 18 14 12 11 10 8 5 4 5 3 4 6 9 11 11 12 13 12 12
3 4 6 7 6 8 8 12 8 9 5 6 14 19 21 15 13 17 16 14 14 12 18 20 19 16 13 14 12 10 8 5 8 8 9 8 7 7 8 11 12 14 14 14
3 5 9 13 12 12 17 21 17 14 18 11 23 17 24 14 4 7 11 14 16 14 13 19 18 15 16 14 12 10 8 10 3 5 4 5 6 8 8 9 11 12 14 15
4 4 2 5 13 15 13 20 20 16 18 17 24 22 15 2 9 15 18 20 15 11 8 15 16 16 17 15 13 15 13 8 7 4 4 6 8 9 10 10 11 11 12 13
5 2 0 9 2 5 10 11 4 6 6 6 6 7 4 7 10 13 20 15 14 11 7 12 15 16 17 16 16 13 8 7 8 8 7 6 9 11 12 13 13 14 14 15
5 4 1 5 4 4 6 3 1 3 6 6 6 9 7 7 20 15 11 12 9 8 5 8 14 18 19 17 14 13 11 9 7 5 6 7 10 12 13 13 14 15 17 17
2 5 3 3 5 11 13 2 2 2 2 6 4 7 11 14 14 4 10 9 6 3 3 7 11 16 14 13 11 6 6 7 6 5 6 9 12 13 14 15 15 16 17 17
2 2 4 3 5 5 1 1 2 2 3 13 14 11 11 14 7 2 10 10 6 6 7 9 10 10 8 6 4 5 6 5 4 7 10 13 14 15 15 16 17 17 17 19
3 2 9 10 7 8 2 4 1 0 2 13 12 9 12 5 8 11 12 6 4 4 5 6 5 4 4 3 3 3 3 4 8 11 13 14 14 15 17 18 18 18 18 18
7 6 5 4 5 8 3 0 1 2 10 13 12 14 13 14 13 8 6 5 3 1 1 2 3 2 2 3 3 3 4 9 12 14 14 15 15 17 18 19 19 18 19 19
4 7 3 8 4 3 3 4 2 5 7 10 12 11 9 8 5 5 3 1 4 3 2 1 2 2 4 4 6 7 9 12 13 14 15 16 17 17 16 17 17 17 16 17
3 1 3 3 1 5 7 3 5 9 9 8 7 7 6 4 3 2 4 4 3 2 2 1 2 3 5 8 9 10 12 14 14 15 15 16 15 13 16 16 14 15 17 18
3 3 3 7 11 6 4 5 8 7 5 3 6 5 3 1 4 6 5 3 2 2 3 4 5 6 8 10 11 12 13 14 15 15 15 14 14 15 14 14 16 16 17 17
8 5 3 7 0 1 1 9 7 4 4 3 2 3 3 3 3 3 3 2 3 4 5 6 7 9 10 12 12 13 13 14 15 14 14 14 15 16 16 17 19 15 16 15
Wind_Direction
10 49 30 4 7 339 301 288 286 354 94 324 259 277 280 155 175 175 182 177 270 329 328 348 2 19 20 24 24 20 17 9 5 14 171 121 196 218 231 250 255 257 256 256
184 72 27 326 269 280 297 310 1 331 352 304 285 284 277 169 176 189 174 192 209 233 305 340 6 17 26 27 31 34 31 28 23 33 188 209 248 261 270 265 264 270 270 268
49 52 313 291 314 357 332 31 345 302 318 271 322 320 106 86 135 135 211 211 222 231 235 344 16 23 35 34 38 39 43 41 40 43 94 172 243 259 262 279 285 286 288 283
59 127 325 309 357 14 301 33 333 316 347 308 14 293 171 161 199 189 208 210 216 234 236 263 31 37 38 41 37 40 52 55 49 51 50 51 48 53 52 47 21 306 303 287
322 15 351 318 24 350 268 332 283 253 299 305 4 259 234 166 223 207 202 197 205 229 240 268 328 9 24 38 58 50 50 59 60 60 54 53 51 54 59 61 66 70 68 68
176 117 298 336 301 254 279 295 291 155 205 314 127 91 280 193 89 32 179 179 190 224 233 244 272 327 5 23 46 51 55 57 61 64 69 69 67 62 47 36 29 29 32 48
315 134 114 308 318 167 345 342 347 359 335 242 147 330 246 132 92 26 345 166 192 223 231 244 243 255 296 359 29 42 47 55 56 60 65 64 68 68 65 60 50 28 24 26
351 332 30 5 54 300 299 349 88 305 325 291 203 242 276 105 118 349 326 186 208 227 226 238 239 243 250 267 315 38 49 56 55 55 57 56 53 46 50 50 41 35 36 20
357 295 160 90 15 18 346 41 23 274 268 242 247 250 88 141 186 201 208 197 214 233 237 240 242 237 239 243 257 305 24 55 58 52 52 48 48 46 43 38 34 38 33 27
17 299 24 135 195 227 264 345 317 271 301 299 274 294 288 229 234 198 219 229 237 238 237 243 247 243 238 235 234 228 232 349 53 62 51 47 41 39 37 32 30 30 28 22
344 194 291 217 202 188 184 239 215 272 269 270 309 261 179 45 63 194 213 231 241 241 239 240 242 238 238 234 233 231 230 212 278 40 42 36 35 33 28 26 23 18 16 16
63 304 282 255 60 58 25 306 318 267 303 259 301 272 245 116 197 252 284 265 242 242 237 235 236 233 234 230 226 226 223 219 333 332 1 28 23 18 20 14 14 14 11 3
121 230 302 262 82 25 237 185 237 298 326 230 279 266 54 140 217 260 258 274 281 241 223 220 214 224 231 228 227 225 219 215 251 302 332 352 328 327 350 352 354 357 359 0
122 241 217 247 287 327 290 282 266 263 254 240 242 272 283 303 341 20 11 10 351 281 224 211 208 218 226 226 231 226 218 214 253 261 292 327 327 336 336 335 340 343 346 348
203 251 239 260 277 276 271 278 273 245 250 250 268 267 276 303 50 14 359 348 341 335 220 211 212 211 207 214 225 222 221 256 251 271 296 299 326 330 327 329 332 335 338 339
158 261 3 272 263 257 270 266 270 247 252 254 262 271 284 301 23 8 349 331 336 331 263 221 215 207 209 220 222 227 251 238 240 260 294 300 315 319 325 326 326 326 327 329
161 234 180 284 360 352 280 259 195 195 209 211 229 258 16 46 27 2 330 327 335 328 295 222 208 204 204 203 217 248 232 222 235 253 282 314 323 320 324 325 325 326 325 324
176 171 155 285 319 237 245 344 279 236 273 294 345 49 50 2 328 316 303 332 340 330 292 221 214 209 208 221 233 234 240 249 260 268 296 322 321 316 317 318 321 324 323 323
318 143 231 249 230 286 277 120 32 18 14 30 36 349 342 351 324 296 327 334 330 308 206 195 208 213 225 234 235 234 252 266 281 295 320 323 310 312 314 316 316 316 313 312
24 302 184 207 255 264 121 70 66 130 248 20 6 355 7 351 315 321 318 320 305 262 228 204 207 224 238 217 223 242 263 274 302 317 320 309 311 313 313 313 314 313 312 311
158 176 223 233 252 277 76 162 156 256 279 354 351 349 327 296 275 294 312 299 284 225 216 221 227 209 223 239 245 253 277 309 319 320 309 312 312 311 311 311 311 311 308 306
175 183 194 207 231 255 138 288 188 349 323 332 328 328 316 305 290 302 272 268 267 238 161 185 203 221 252 270 284 313 336 316 311 307 312 312 310 310 310 310 313 314 312 313
252 190 201 196 213 124 274 191 193 326 321 318 322 321 313 307 281 271 258 192 169 197 201 222 250 281 295 309 338 336 309 302 307 309 310 310 310 312 312 316 317 317 319 316
334 76 233 306 194 116 115 66 8 342 333 327 330 337 342 309 245 220 173 195 209 222 238 268 288 308 321 327 322 309 309 309 311 313 315 316 319 324 319 318 319 320 318 320
167 163 239 251 265 110 107 11 337 330 334 344 360 24 28 145 140 169 175 189 219 260 298 310 316 328 315 311 309 311 312 315 318 319 319 320 321 319 322 322 318 318 319 325
188 212 220 287 66 282 301 321 332 333 11 29 21 37 119 163 158 179 177 207 267 291 307 323 313 309 310 311 313 315 316 320 318 319 320 322 320 322 319 318 322 326 323 314